Regional Weather Roundup
Issued by NWS

Home | Current Version | Previous Version | Text Only | Print | Product List | Glossary On
Versions: 1 2 3 4 5 6 7 8 9 10 11 12 13 14 15 16 17 18 19 20 21 22 23 24 25 26 27 28 29 30 31 32 33 34 35 36 37 38 39 40 41 42 43 44 45 46 47 48 49 50
000
ASUS43 KLSX 250857
RWRMO

WEATHER SUMMARY FOR MISSOURI
NATIONAL WEATHER SERVICE SPRINGFIELD MO
400 AM CDT SUN SEP 25 2016

NOTE: "FAIR" INDICATES FEW OR NO CLOUDS BELOW 12,000 FEET WITH NO
       SIGNIFICANT WEATHER AND/OR OBSTRUCTIONS TO VISIBILITY.
       CURRENT SKY AND/OR WEATHER CONDITIONS ARE NOT AVAILABLE FOR
       CHILLICOTHE AND FARMINGTON.

MOZ001>031-035>038-043-044-053-054-251000-
...NORTHERN AND WESTERN MISSOURI...

CITY           SKY/WX    TMP DP  RH WIND       PRES   REMARKS
KANSAS CTY INT LGT RAIN  68  64  87 SW9       30.02S
LEE`S SUMMIT   PTCLDY    70  65  84 SW7       30.02F
ST JOSEPH      LGT RAIN  69  67  93 SW8       30.02S
CHILLICOTHE      N/A     69  66  90 CALM      30.01F

$$
MOZ066>068-077>081-088>096-101>105-251000-
...SOUTHWEST MISSOURI...

CITY           SKY/WX    TMP DP  RH WIND       PRES   REMARKS
SPRINGFIELD    CLOUDY    72  66  81 CALM      30.06R
JOPLIN         CLOUDY    69  65  86 E8          N/A

$$
MOZ032>034-039>042-045>050-055>058-069>072-251000-
...CENTRAL MISSOURI...

CITY           SKY/WX    TMP DP  RH WIND       PRES   REMARKS
COLUMBIA       NOT AVBL
JEFFERSON CITY CLOUDY    71  68  90 E3        30.02F
ROLLA          CLEAR     71  66  84 S8        30.05F
SEDALIA        MOCLDY    74  68  81 W6        30.04S

$$
MOZ051-052-059>065-251000-
...EAST CENTRAL MISSOURI...

CITY           SKY/WX    TMP DP  RH WIND       PRES   REMARKS
ST LOUIS INTL  CLEAR     73  66  78 CALM      30.05F

$$
MOZ072>076-082>087-097>100-106>115-251000-
...SOUTH CENTRAL AND SOUTHEAST MISSOURI...

CITY           SKY/WX    TMP DP  RH WIND       PRES   REMARKS
CAPE GIRARDEAU CLEAR     69  67  93 CALM      30.05S
WEST PLAINS    CLEAR     66  63  90 CALM      30.08F

$$


USA.gov is the U.S. government's official web portal to all federal, state and local government web resources and services.